Theta_e
348 348 348 347 345 346 346 347 348 348 348 348 349 349 349 349 349 349 346 344 344 344 344 344 343 344 343 344 343 344 346 345 342 336 328 328 329 330 333 333 335 335 335 337 338 339 339 339 338 337 336 336 337 339 341 341 341 341 341 341 339 336 333 331 330 330 332 335 338 339 340 341 341 341 341 341 341 342 342 343 344 343 343 343 344
348 349 347 346 347 347 346 347 348 348 348 349 349 349 349 350 349 349 347 344 345 345 345 343 343 344 342 341 342 343 343 341 339 336 332 330 332 334 337 338 338 338 339 339 340 341 341 342 342 342 340 339 338 339 340 340 339 339 340 341 340 338 335 334 333 333 335 337 338 340 341 342 342 343 343 344 344 343 343 343 343 343 341 342 344
349 348 347 346 347 347 346 348 348 348 349 349 350 350 349 350 350 350 348 345 345 344 343 342 341 341 341 341 342 342 341 342 341 340 335 333 335 337 338 339 339 340 340 340 340 341 342 342 342 342 342 341 341 340 341 342 342 342 342 343 342 340 339 337 336 335 336 337 339 340 341 342 343 344 345 345 345 345 345 345 344 343 341 342 343
349 347 347 347 347 347 348 348 349 348 349 350 350 350 349 349 349 349 347 345 345 344 343 343 341 341 341 341 343 343 341 342 341 339 336 337 339 337 337 338 339 340 341 340 340 340 340 340 342 343 343 342 342 342 343 344 344 344 345 345 345 345 343 342 340 339 338 339 339 339 341 342 343 344 343 343 343 344 345 346 345 344 343 343 342
349 346 346 348 348 348 348 350 350 349 349 351 351 350 349 349 349 347 345 344 345 344 342 342 342 342 340 340 342 342 340 339 338 337 337 340 340 337 338 339 339 340 340 339 340 340 340 340 343 344 345 345 345 345 345 345 345 345 345 345 345 345 346 346 344 343 341 340 340 340 342 343 342 342 341 341 341 341 343 344 345 345 344 343 342
350 347 347 348 348 349 349 349 349 349 349 351 351 350 349 348 348 347 345 345 345 343 341 341 342 343 341 340 341 342 340 339 338 340 339 340 339 337 338 339 338 339 339 338 339 340 341 341 344 346 346 346 346 346 346 346 346 346 346 345 344 344 346 347 346 346 344 342 342 343 343 342 342 341 341 342 341 341 342 342 343 344 345 343 342
349 347 348 349 349 349 349 350 349 349 350 351 350 350 350 349 347 345 344 344 343 343 342 341 342 343 343 341 342 341 340 339 338 340 339 339 338 337 338 339 339 339 339 338 338 340 342 343 344 345 346 346 346 345 345 345 346 346 346 346 346 345 345 346 346 346 345 344 344 344 344 343 342 342 343 342 342 342 342 343 344 344 344 343 344
348 348 349 350 349 350 350 351 351 349 349 352 349 348 350 349 347 346 343 341 341 342 341 339 340 342 342 341 342 340 339 340 339 338 339 339 339 338 338 340 340 340 339 340 339 339 341 342 343 345 344 345 346 345 345 347 346 346 346 347 347 346 346 346 346 346 346 345 345 344 343 343 342 343 343 342 342 342 343 344 344 344 345 345 346
348 349 349 349 349 349 348 348 350 349 349 351 349 349 349 348 348 349 345 343 342 342 341 339 339 340 340 340 341 340 339 342 340 339 339 339 338 339 339 340 341 341 340 341 341 340 342 342 343 343 344 344 345 345 345 345 346 346 347 348 347 347 346 346 346 346 347 346 345 344 343 343 343 344 343 342 342 342 343 344 345 347 347 347 347
348 350 350 350 350 349 348 350 351 349 349 350 350 350 349 348 348 349 347 346 344 343 343 342 341 340 339 338 339 340 340 341 340 339 338 338 337 338 339 340 341 342 341 341 340 340 342 342 342 344 344 344 344 344 344 344 345 346 348 348 346 346 346 346 346 347 347 347 345 343 343 343 343 344 343 343 343 343 345 346 347 349 348 348 346
347 350 351 350 351 350 350 350 351 351 351 350 350 350 349 349 349 348 347 347 345 345 344 343 342 340 339 339 339 340 340 340 340 340 339 339 338 337 338 340 340 342 342 341 341 341 341 341 341 344 345 345 344 344 344 344 345 346 347 348 346 346 346 347 347 347 347 346 344 343 343 343 343 343 343 343 344 344 345 348 349 349 348 349 343
345 349 351 349 350 351 349 349 349 351 352 351 350 350 349 349 349 348 347 346 346 345 343 342 342 341 340 340 340 341 341 340 342 341 340 340 340 338 338 340 340 341 342 342 342 342 342 341 342 343 345 344 345 345 344 344 344 345 346 346 347 346 347 348 348 348 348 345 343 343 343 343 342 343 343 344 344 344 345 348 350 349 349 349 341
343 346 349 348 350 349 348 350 352 351 352 351 350 350 351 350 349 349 348 347 345 344 343 342 342 341 342 342 341 341 340 341 342 340 340 341 341 340 339 341 341 340 341 342 342 341 341 342 344 345 345 344 345 346 346 345 344 345 346 346 347 348 348 349 348 348 347 344 343 343 343 343 343 343 342 342 343 344 345 348 350 349 349 348 338
343 344 346 347 347 347 346 349 352 349 347 348 345 347 352 351 350 349 348 347 346 345 345 344 343 343 342 342 343 342 339 341 342 341 342 341 341 340 339 340 341 340 341 342 341 340 343 344 344 346 346 345 346 347 348 347 345 345 346 346 347 349 348 348 348 348 345 343 343 343 342 342 342 341 340 341 342 344 345 346 348 348 349 347 335
344 344 345 346 346 347 347 346 346 345 343 345 344 346 350 351 350 348 347 347 346 347 346 344 344 343 343 344 345 344 341 340 342 342 342 341 340 340 339 340 340 340 341 341 341 341 344 345 345 346 347 345 346 347 349 350 348 347 348 347 348 349 349 348 347 346 343 343 343 342 341 342 341 340 339 342 343 344 345 345 347 348 349 345 331
346 347 347 346 347 348 348 346 345 344 342 344 345 346 349 351 349 347 347 348 346 346 346 346 345 344 345 345 345 344 342 342 343 342 341 341 342 340 340 340 340 340 342 343 342 342 344 346 346 345 346 346 346 348 350 349 348 349 349 348 348 347 348 347 346 344 343 343 343 342 342 342 340 339 340 342 343 344 344 345 348 349 350 342 328
348 351 349 345 346 348 347 346 346 345 344 344 347 349 350 348 347 345 347 348 346 347 347 346 346 346 345 345 347 346 345 346 345 344 343 344 344 344 342 342 342 343 343 344 344 344 345 346 347 346 346 347 347 350 351 349 349 350 349 349 347 346 345 345 344 343 343 344 343 343 342 340 338 339 341 343 344 344 344 346 349 349 349 339 326
349 351 348 344 344 346 346 346 346 345 346 348 351 351 349 349 348 345 347 346 345 347 348 347 345 345 346 346 348 346 345 348 347 347 348 346 346 346 344 343 343 345 344 344 344 345 344 344 347 348 347 347 349 351 351 351 352 352 351 350 347 344 344 343 343 343 344 343 343 341 339 337 339 341 343 344 344 344 345 349 350 350 348 337 325
348 348 346 344 344 344 344 348 349 347 346 349 351 350 349 352 352 348 347 346 344 345 349 350 346 346 348 346 346 345 346 348 347 349 349 347 348 347 344 343 343 344 344 344 344 344 344 345 348 349 348 348 350 352 352 352 353 353 351 349 344 343 343 343 343 343 342 342 339 338 337 340 341 343 344 345 345 345 348 350 350 350 346 334 325
350 347 345 343 344 344 344 347 351 349 346 349 352 351 351 353 352 350 346 343 345 347 349 351 349 347 349 348 347 347 347 347 347 348 348 346 349 348 345 344 343 344 345 345 343 344 346 348 350 349 348 349 351 353 353 352 353 353 351 347 343 343 343 343 342 341 339 338 337 338 340 343 343 345 346 345 345 347 350 350 350 350 345 333 326
353 348 344 344 343 343 343 345 348 348 347 350 352 353 352 350 348 347 346 345 348 350 350 350 349 349 351 350 351 349 347 348 347 347 347 347 348 348 346 345 345 344 345 344 344 346 348 349 349 349 349 350 352 352 351 352 353 352 351 345 342 343 342 342 341 338 336 337 339 341 343 344 346 347 345 344 346 349 350 350 350 349 343 333 326
352 347 344 344 343 342 343 343 345 347 348 351 353 353 350 348 347 349 349 347 347 349 351 352 351 351 350 349 350 350 349 350 349 348 349 348 347 348 347 346 345 345 345 346 347 349 349 350 350 349 349 350 351 351 350 351 351 353 351 343 340 342 340 340 341 338 338 339 340 342 345 348 348 345 344 345 348 349 350 350 349 348 342 334 327
350 348 346 346 345 343 343 344 346 351 351 349 351 352 351 350 351 353 352 347 344 346 350 352 352 351 351 349 350 351 349 349 350 349 349 348 348 349 348 348 348 347 347 348 349 350 350 350 350 348 349 350 351 350 350 350 350 353 350 339 338 342 340 342 343 341 340 340 341 344 348 349 348 345 344 347 349 349 350 350 349 348 342 334 329
353 352 350 350 350 346 345 347 349 351 349 346 348 351 353 353 353 355 353 348 347 347 346 350 352 351 351 350 350 350 349 349 349 349 349 349 349 350 349 349 350 349 348 349 349 349 350 350 348 348 350 351 350 349 349 349 349 351 349 338 338 342 342 345 345 343 342 341 342 346 349 350 349 347 346 347 348 348 350 350 349 348 342 336 331
354 354 352 353 352 346 347 349 349 348 347 344 347 350 353 354 354 355 353 350 352 351 347 350 353 353 352 351 350 350 350 349 349 348 349 349 349 349 350 351 352 351 350 350 349 349 350 350 349 349 350 352 351 351 350 349 349 351 350 342 341 344 345 347 345 344 344 341 342 346 350 351 350 349 348 347 347 348 349 350 349 348 343 337 333
353 354 353 353 353 349 347 348 346 346 346 346 347 347 348 351 352 352 351 351 354 353 349 350 353 353 353 353 352 351 350 349 349 350 349 350 350 350 350 351 352 352 353 353 351 350 351 351 350 350 350 351 351 351 352 350 350 352 349 344 344 345 346 347 346 346 346 341 342 346 349 350 351 351 350 348 349 349 350 349 350 349 345 339 335
352 354 353 353 354 352 348 347 346 345 344 344 344 344 344 344 346 346 346 350 353 353 352 353 354 354 354 354 353 353 352 352 351 351 350 350 351 351 351 351 351 353 354 354 353 352 352 350 351 350 348 349 350 353 354 352 350 351 348 345 345 346 346 347 346 348 348 343 341 344 347 349 350 351 351 350 350 350 350 350 350 350 348 342 338
353 353 354 353 355 354 351 348 348 346 344 343 343 346 346 344 345 345 346 349 353 355 356 356 355 355 354 354 353 353 353 353 352 352 352 351 351 352 352 352 351 353 354 353 351 352 353 351 351 350 348 349 350 352 353 352 349 349 348 346 346 346 346 347 347 347 348 345 340 339 343 347 349 350 351 350 349 350 350 349 350 351 350 346 340
354 354 354 353 353 355 354 353 353 350 348 346 344 345 345 345 346 346 345 348 351 353 354 353 354 355 354 353 353 354 354 354 353 352 352 352 351 352 354 353 353 353 354 351 349 350 352 352 351 350 350 351 350 349 350 350 348 348 348 346 347 347 346 347 346 344 345 346 344 337 333 341 348 349 350 351 349 350 350 349 350 351 351 349 345
354 354 355 354 352 351 352 355 357 354 351 352 351 350 348 347 346 345 345 346 348 348 347 346 350 354 353 353 352 353 353 353 352 352 352 352 352 353 354 353 354 354 353 350 349 350 351 352 353 352 351 351 349 349 349 347 346 348 347 346 347 347 345 346 346 343 344 347 349 342 328 330 345 349 348 350 350 349 350 349 351 351 351 351 348
354 354 355 356 354 351 348 350 354 354 351 352 353 352 351 349 347 348 350 350 350 349 348 347 351 354 354 354 355 354 353 353 353 354 353 353 353 353 353 353 353 353 352 350 350 351 351 352 354 352 352 351 349 350 350 348 345 346 347 346 346 346 345 345 345 343 344 347 350 349 333 326 341 350 347 349 350 350 350 350 350 351 351 351 351
355 354 354 357 356 355 350 347 351 353 352 352 354 353 351 350 350 352 353 354 354 353 352 351 353 354 354 355 356 354 352 352 353 354 353 354 353 352 351 351 352 352 353 352 351 351 351 352 352 350 349 349 349 349 349 349 347 345 346 347 345 344 344 345 345 344 345 348 350 350 340 330 338 347 347 347 349 350 351 350 350 350 351 351 352
355 355 354 355 355 356 355 352 353 355 353 353 355 355 354 353 351 351 353 354 354 352 351 352 352 353 354 354 355 354 353 352 354 355 354 355 355 353 351 350 351 352 353 352 351 351 350 350 349 348 348 349 349 350 350 350 350 347 346 348 346 344 344 343 344 344 345 348 348 348 344 336 334 338 340 343 348 350 350 351 351 350 351 351 351
354 355 354 355 354 355 356 354 354 354 353 354 356 356 356 355 354 355 354 353 353 354 354 354 353 351 351 352 353 354 354 354 355 355 355 354 355 354 353 352 352 351 352 352 350 350 349 348 348 347 347 347 348 350 350 349 350 348 347 348 348 346 345 344 345 346 347 348 347 347 346 341 337 335 332 333 343 349 350 351 350 350 351 351 351
354 354 354 355 354 354 354 354 354 354 354 356 356 356 356 355 355 356 353 352 353 354 354 355 353 350 351 351 350 352 353 353 354 354 355 354 354 353 353 353 353 353 353 353 352 351 349 348 347 347 347 346 347 348 349 349 350 349 347 347 348 348 347 346 345 346 348 348 347 347 346 343 343 341 332 324 330 342 349 351 351 350 350 350 351
353 353 354 354 354 354 354 354 355 354 355 355 355 355 356 354 353 353 350 350 353 351 350 352 351 350 351 350 350 350 352 352 353 353 354 354 353 353 353 353 353 353 353 353 352 352 351 348 347 347 347 347 347 347 348 349 349 350 348 346 347 349 348 347 346 346 348 348 348 348 348 346 345 346 339 326 322 331 341 349 351 351 351 350 350
353 353 353 354 354 353 351 353 355 355 354 354 355 355 356 354 353 353 352 352 352 349 349 350 350 349 349 348 349 351 351 351 352 352 353 353 353 354 354 353 354 354 354 353 353 353 351 350 348 347 346 346 346 346 347 348 349 349 348 345 346 347 349 349 348 348 347 348 349 349 349 348 346 347 345 335 324 324 333 344 350 353 352 351 351
353 351 352 354 354 352 351 353 355 356 354 353 353 354 355 354 353 352 352 352 351 350 350 351 350 350 349 348 349 350 351 351 351 352 353 353 355 354 354 354 354 354 354 354 354 351 349 347 347 347 346 344 344 344 345 347 349 349 347 345 344 346 348 348 349 349 348 347 347 348 349 349 347 347 348 342 331 326 333 343 349 352 353 352 351
352 351 351 353 354 354 353 353 354 356 355 352 352 353 353 353 351 350 350 350 351 350 350 350 350 350 348 348 348 348 348 349 350 351 352 353 355 354 352 353 353 354 353 353 353 350 348 346 346 346 346 345 345 345 345 346 347 348 348 346 346 345 345 346 347 349 349 348 346 347 348 349 348 347 348 346 338 331 336 346 349 349 352 352 352
352 351 351 352 352 353 354 353 353 355 354 354 353 352 353 352 350 350 350 350 350 349 348 348 348 348 347 347 348 349 349 348 348 349 350 353 354 353 351 351 352 352 350 350 350 350 348 346 346 346 346 345 346 346 345 345 344 345 346 347 346 346 346 347 346 346 347 349 348 347 348 348 348 348 347 346 342 334 334 342 345 345 347 347 347
351 351 352 352 351 352 353 352 353 355 356 354 354 353 354 353 351 349 350 350 350 350 348 348 348 348 348 348 350 352 351 349 348 348 349 351 352 351 351 350 349 349 348 348 348 347 346 346 346 346 345 345 346 346 345 344 342 341 342 344 345 345 346 347 346 345 346 348 347 347 348 348 347 348 347 344 344 340 333 333 338 339 339 339 338
351 351 351 352 352 351 352 352 353 355 355 353 353 353 353 353 351 350 349 349 349 349 348 349 348 348 350 351 351 351 350 350 348 348 348 349 349 350 350 350 349 348 349 350 349 347 347 347 347 347 347 345 345 345 344 344 343 341 341 342 343 343 345 347 347 346 347 347 347 348 349 348 347 348 346 344 345 344 333 328 330 330 328 328 329
353 352 353 353 352 350 351 352 353 354 354 352 350 351 352 352 351 350 349 349 350 349 350 352 351 349 350 351 351 350 350 351 350 349 349 348 349 348 348 349 348 348 348 349 348 347 347 348 348 347 347 346 345 345 344 344 344 344 343 343 341 341 344 347 348 346 346 346 347 348 349 349 347 347 347 347 347 343 334 328 327 325 320 317 318
354 354 355 355 353 351 350 350 351 351 351 350 349 351 352 352 351 351 350 350 350 350 350 351 351 351 351 351 351 352 353 353 351 350 349 348 348 347 347 348 348 348 348 348 348 347 347 348 348 347 346 347 346 346 346 345 344 345 344 343 343 341 342 346 348 346 345 345 346 348 349 348 348 347 348 348 346 343 340 333 326 322 318 313 311
351 353 355 355 353 351 351 349 349 350 350 349 348 350 351 351 351 351 350 350 349 349 348 351 352 351 351 351 350 351 352 351 349 348 348 347 346 346 345 346 347 348 350 349 348 349 349 350 350 348 348 348 348 347 347 347 346 345 345 345 344 342 342 345 346 347 347 347 347 347 347 347 348 348 348 347 345 343 342 336 327 324 319 313 310
346 349 352 352 352 352 352 350 351 352 351 349 349 349 350 351 351 351 350 350 349 348 349 351 352 351 351 350 349 349 348 348 346 346 346 346 347 347 347 347 347 348 350 350 350 351 351 352 351 350 350 350 350 349 348 348 348 347 346 346 345 345 344 345 347 347 348 347 347 348 347 347 347 347 345 345 345 344 342 338 332 325 319 314 311
345 346 348 349 350 352 351 351 351 352 350 349 350 350 351 351 351 351 350 349 348 348 349 350 351 351 350 349 349 349 348 348 348 347 347 347 347 348 349 348 349 349 349 350 351 351 351 351 351 351 351 351 350 351 350 350 350 348 348 347 347 346 345 346 347 347 347 347 347 347 346 346 346 346 345 344 344 343 341 339 335 326 321 321 319
346 345 345 348 351 352 351 351 352 352 350 350 350 350 350 351 350 349 349 348 348 349 350 351 351 351 351 349 349 348 348 349 348 348 348 348 348 348 348 347 347 347 347 347 348 348 349 350 350 350 350 350 350 350 350 350 350 350 349 348 348 348 348 348 348 347 348 348 347 347 347 346 345 344 344 343 342 341 339 338 337 331 326 330 329
348 346 344 347 350 350 350 351 351 352 352 351 350 350 350 349 348 348 347 347 348 349 349 349 349 349 348 348 348 348 347 347 347 347 346 346 344 343 343 343 343 343 344 344 344 345 345 346 346 346 346 347 349 350 350 350 350 351 350 348 348 349 349 348 347 347 347 347 347 347 346 344 343 343 342 341 340 340 339 337 338 336 332 333 332
348 347 347 349 349 348 348 349 349 350 351 350 350 350 349 348 348 348 347 347 346 346 346 345 345 345 345 344 344 344 344 343 342 343 342 341 341 341 340 341 342 342 342 342 342 342 342 341 341 342 342 344 346 347 348 349 349 349 348 347 346 348 348 347 346 346 347 346 345 345 344 343 342 341 341 340 339 339 338 337 337 336 334 335 333
349 349 350 350 350 348 347 348 348 349 350 350 349 349 348 347 347 345 344 344 343 342 342 342 341 339 337 338 339 338 337 337 337 339 339 339 339 340 339 339 339 339 340 340 340 340 340 341 341 342 342 343 345 347 347 348 348 347 346 345 345 345 347 348 346 345 346 345 344 344 344 343 341 340 339 339 339 338 337 336 336 336 335 335 333
Wind_Speed
12 9 7 9 12 11 10 12 12 9 8 7 6 5 3 4 5 5 6 6 7 7 7 7 8 9 9 7 8 10 5 2 5 7 11 11 10 12 13 14 14 13 13 12 12 12 12 11 11 10 9 9 9 8 8 9 9 9 9 9 9 9 9 8 8 7 7 8 9 11 13 14 15 15 16 16 16 17 16 16 16 17 17 18 18
11 10 8 11 12 10 10 12 12 9 7 6 4 4 4 4 4 4 7 6 5 8 8 8 10 8 6 9 10 9 7 5 7 8 10 12 12 12 13 14 13 12 11 11 11 11 11 11 10 10 9 9 8 8 8 8 8 9 9 10 10 10 10 9 8 8 7 9 11 13 15 16 17 19 19 20 20 20 19 19 19 19 19 19 20
11 11 10 11 11 9 10 12 12 8 6 5 3 3 4 4 3 3 7 5 4 7 8 7 8 9 7 9 10 9 10 10 9 6 6 10 11 12 12 12 11 10 9 9 9 8 8 9 9 9 9 8 8 8 8 8 9 9 10 10 11 11 11 11 10 10 10 11 13 15 17 18 20 22 22 23 23 22 22 21 21 21 21 21 22
13 11 11 12 10 9 10 11 9 4 6 6 4 4 4 4 4 5 7 7 6 7 7 6 8 11 9 7 6 6 10 9 6 3 2 5 7 8 8 9 8 8 8 8 8 7 7 7 8 8 8 9 9 9 9 9 10 10 10 11 11 12 12 12 12 12 13 14 15 16 18 20 21 22 23 23 24 23 22 21 21 22 22 22 23
12 11 11 12 11 10 10 9 5 3 6 6 4 4 4 6 6 7 8 7 7 8 7 6 9 10 6 6 6 7 9 6 3 1 3 4 3 2 4 5 5 6 7 7 7 7 6 6 7 7 7 8 9 11 11 11 11 11 11 12 12 12 12 13 14 14 15 16 16 16 17 19 21 22 21 21 21 20 19 18 19 21 22 23 24
12 11 12 12 11 10 8 7 6 5 5 4 4 5 4 5 6 7 7 7 9 9 6 6 8 8 4 5 8 8 8 5 4 2 3 3 2 2 2 4 5 6 6 5 6 7 6 5 6 6 7 8 9 11 12 12 13 13 13 13 13 13 13 14 14 15 16 16 16 16 17 19 20 21 20 20 20 19 18 18 18 20 22 24 25
14 13 13 12 9 8 8 6 7 7 4 4 6 5 4 5 5 7 6 8 10 7 4 5 6 7 6 6 6 7 6 4 5 4 2 2 4 3 3 5 6 8 7 5 6 6 6 7 7 6 7 8 10 11 12 13 14 15 15 15 15 14 14 14 14 15 16 16 16 17 18 19 20 20 20 21 22 20 19 18 19 20 22 24 24
15 14 12 13 10 8 8 6 6 8 6 4 6 6 5 5 5 5 5 9 10 6 4 4 5 6 7 7 5 5 3 2 5 4 2 3 4 4 4 6 8 8 8 7 8 8 8 9 9 9 9 9 10 11 11 12 13 15 16 16 16 15 14 14 14 16 16 17 17 18 18 19 19 19 20 23 23 21 19 19 20 20 22 23 24
14 12 11 12 11 7 8 7 5 6 5 4 6 7 6 5 6 5 7 7 4 4 5 3 6 7 5 5 5 3 2 3 6 4 2 3 3 5 6 6 8 8 8 9 11 11 11 12 13 11 9 8 9 10 11 12 12 12 14 14 15 14 14 14 15 16 17 18 18 18 18 18 18 19 21 23 24 21 19 18 19 20 22 23 24
12 12 11 11 11 10 10 8 5 5 5 5 7 7 6 7 5 4 7 6 4 5 4 3 4 6 6 4 4 3 3 4 6 4 1 2 3 3 5 6 8 8 8 8 7 10 11 14 16 12 10 10 11 12 13 13 13 12 12 13 13 13 13 14 16 17 17 18 19 18 18 18 19 20 21 24 25 23 20 18 18 20 21 23 24
13 12 11 10 11 11 10 8 7 5 5 7 7 6 6 6 4 3 4 4 4 5 2 2 3 5 7 4 4 4 2 2 1 1 1 3 4 3 4 7 7 6 8 9 5 7 11 13 15 13 13 14 15 15 15 14 14 12 11 11 12 12 13 15 15 16 17 18 18 17 18 19 20 21 22 24 24 23 20 18 19 21 21 23 24
13 12 11 10 10 9 8 8 7 5 5 8 8 6 6 6 4 3 3 3 5 5 2 2 3 4 6 3 4 4 2 1 1 1 2 4 5 4 3 6 7 7 8 8 5 7 12 15 15 14 13 14 16 16 15 15 15 13 12 11 11 12 13 15 15 17 18 18 17 17 19 20 20 21 22 23 24 23 20 18 19 21 21 23 23
12 12 11 10 9 9 9 9 7 7 6 7 6 7 6 5 3 2 3 3 5 5 1 3 3 4 5 4 3 2 3 2 2 2 3 5 8 7 7 7 8 10 8 6 7 11 16 17 15 14 13 15 17 16 15 16 15 13 12 12 12 12 13 14 16 18 18 18 17 18 19 20 21 21 22 23 23 22 20 19 20 20 21 23 23
10 9 10 10 8 8 9 9 7 8 7 6 6 7 6 5 5 2 2 3 3 4 1 2 2 4 5 5 4 4 5 5 4 2 2 6 8 9 8 5 5 9 10 8 9 12 14 15 14 13 14 16 17 15 16 17 16 14 12 12 12 13 13 15 17 18 18 17 17 18 19 20 21 22 23 23 22 21 19 18 19 19 21 22 22
7 7 7 8 8 7 7 7 6 6 6 5 5 6 5 6 5 0 3 3 3 4 4 3 3 2 4 2 2 4 6 5 5 6 6 6 7 7 7 7 7 9 11 10 10 8 9 12 13 12 13 15 16 15 17 18 16 13 11 12 12 12 14 16 18 17 16 17 18 19 19 20 22 23 24 22 21 20 18 17 17 19 21 22 22
5 5 5 5 7 7 6 6 4 5 5 4 4 5 4 5 4 2 5 4 2 4 4 4 4 1 2 1 0 4 5 3 4 7 7 6 8 7 6 9 9 10 10 11 11 8 7 9 10 12 14 15 15 15 18 17 13 12 11 12 12 13 16 17 17 16 16 18 18 19 20 22 24 24 24 21 19 18 16 15 16 18 21 21 22
5 4 3 4 6 6 6 5 4 5 6 4 4 4 2 3 3 3 5 4 3 3 3 4 4 1 2 1 1 5 6 4 6 5 5 7 7 6 7 9 11 11 11 12 13 9 8 11 12 13 14 14 14 14 16 15 12 12 12 13 13 15 16 16 15 15 17 18 19 21 22 23 24 24 22 19 18 16 14 14 16 18 20 20 21
6 6 5 5 6 5 5 5 5 5 6 4 3 2 2 3 2 3 3 4 4 1 2 4 3 1 2 3 3 4 7 6 6 5 5 6 5 5 8 9 10 10 10 11 12 10 9 10 11 11 12 12 13 14 14 11 11 13 12 14 15 16 15 14 15 16 18 20 21 23 23 23 23 22 19 16 15 13 12 14 17 18 19 19 20
7 7 6 6 6 6 5 6 6 5 5 4 3 3 3 3 3 2 2 2 3 3 2 2 0 1 2 3 3 4 6 6 7 6 6 7 6 6 8 9 11 11 10 8 8 10 9 8 6 8 10 10 10 13 12 9 10 12 13 15 16 15 14 14 16 17 20 22 23 24 23 22 21 18 16 14 13 11 12 15 17 18 19 18 19
7 6 6 6 6 6 6 6 6 5 5 5 4 4 4 4 4 3 2 2 3 3 1 1 3 2 2 2 3 5 5 7 8 7 7 8 7 7 7 8 10 9 10 10 8 8 8 7 6 9 12 11 9 11 11 8 9 11 13 15 15 13 13 14 17 20 22 23 23 23 21 19 17 16 15 12 10 11 14 16 17 19 18 17 19
7 6 6 6 6 6 6 6 6 6 6 7 5 3 3 3 4 4 3 4 4 3 2 3 4 4 4 3 5 6 6 8 7 5 7 8 8 9 9 9 8 6 8 10 8 5 5 5 7 10 10 9 8 8 9 8 10 11 12 15 15 12 13 16 19 22 22 22 22 21 18 16 15 15 13 10 10 12 15 16 17 19 17 16 18
7 6 6 6 5 5 6 6 6 6 7 7 5 2 3 3 2 4 4 4 5 4 3 3 3 5 5 5 7 7 7 7 5 4 6 8 9 10 10 10 7 7 11 7 6 4 7 5 7 9 7 7 7 7 8 9 11 13 13 15 14 11 13 18 22 23 22 22 21 18 15 14 15 14 11 9 10 13 15 16 17 18 16 16 17
7 7 5 6 7 6 6 6 6 6 6 6 6 4 3 2 4 6 6 6 5 4 4 3 4 5 5 5 7 9 8 6 5 5 6 7 9 10 10 10 9 9 9 4 2 4 8 7 7 8 7 7 7 8 9 11 13 13 13 15 14 12 16 20 23 24 22 22 20 15 13 13 13 12 10 8 10 13 15 16 17 17 16 15 16
9 9 6 7 8 6 7 7 6 6 6 7 8 8 6 4 4 7 7 6 5 4 4 4 4 6 5 5 6 8 6 6 7 6 6 7 9 11 12 11 10 9 6 5 5 4 5 6 6 7 8 8 9 11 12 11 13 13 14 18 17 16 19 20 23 24 22 21 18 13 11 11 12 11 9 7 10 13 15 16 16 17 15 14 15
11 10 7 9 10 7 7 8 7 7 8 8 8 8 8 5 4 7 7 6 4 4 5 5 4 5 6 6 7 7 6 7 8 7 6 8 8 10 11 10 10 9 8 9 8 6 6 6 6 6 7 8 11 13 11 9 11 12 14 18 18 18 19 20 23 23 20 20 17 11 9 10 10 10 9 8 10 12 13 14 15 16 14 13 14
11 10 9 11 11 8 8 8 8 8 8 8 8 9 9 9 8 9 8 6 5 6 7 5 5 5 5 7 7 7 7 7 8 8 7 8 8 9 10 10 10 9 10 10 9 7 7 7 8 9 8 9 11 12 11 9 9 10 13 16 17 17 19 20 21 20 19 20 18 11 8 8 9 9 9 9 10 11 12 12 13 15 14 13 13
10 10 10 10 9 8 8 8 8 8 8 8 8 9 9 10 10 10 8 7 6 8 8 5 5 6 6 7 7 6 6 6 7 8 7 7 8 8 9 10 11 10 9 10 9 8 7 8 9 10 10 11 11 10 11 10 9 9 10 15 16 16 18 19 19 18 19 20 19 14 10 7 7 7 8 8 9 10 10 10 12 14 14 13 12
11 12 11 11 10 10 8 8 8 7 8 9 9 9 8 8 9 9 7 7 7 8 8 6 6 7 6 7 7 7 6 6 7 6 7 9 9 8 8 8 10 10 10 10 10 8 9 9 10 11 11 11 11 9 9 10 11 9 9 14 17 16 17 18 17 19 20 19 19 17 13 9 7 6 7 7 8 8 8 9 11 12 13 13 12
11 11 11 12 12 12 9 9 9 8 8 8 8 9 10 8 8 9 8 7 8 9 10 9 7 7 6 6 7 7 6 7 7 7 8 10 10 9 8 7 9 9 10 13 12 10 9 9 9 11 10 11 11 9 6 6 8 9 9 12 15 16 16 17 18 21 21 19 20 20 16 12 8 6 6 6 6 7 7 8 10 11 13 13 12
10 10 11 11 12 11 11 10 10 9 8 8 8 9 9 8 8 9 8 7 8 9 9 9 7 7 7 7 8 8 8 7 7 7 8 9 8 7 7 7 9 10 11 13 13 10 9 8 9 10 11 12 12 9 6 4 4 7 9 13 15 16 18 18 18 21 22 20 21 21 19 14 9 7 6 5 5 5 6 7 9 10 11 12 12
12 12 11 11 11 10 10 11 11 10 9 9 10 9 8 8 8 8 8 7 8 7 8 8 6 7 8 8 8 9 9 8 8 7 7 8 8 8 9 8 8 10 12 12 12 11 10 10 9 10 12 12 12 10 8 5 3 4 6 12 14 15 18 18 16 19 21 21 21 22 20 16 10 7 6 5 5 4 5 6 8 9 9 11 12
13 13 12 12 12 10 9 9 9 11 11 9 9 9 9 9 8 8 8 7 7 7 7 7 7 7 8 9 10 11 10 9 9 8 7 8 11 10 10 9 8 9 10 10 11 12 11 10 10 12 13 13 13 13 11 8 5 4 6 10 13 14 17 17 15 18 21 21 20 21 20 17 12 8 6 6 5 5 4 5 6 7 8 9 10
13 13 13 13 11 10 10 8 9 11 11 8 9 9 9 9 8 8 8 8 8 8 8 8 8 8 8 9 11 11 11 10 9 9 8 9 11 10 8 7 7 8 8 9 11 13 12 12 12 13 14 14 14 13 12 9 7 5 6 8 11 14 17 16 16 20 21 20 19 20 19 16 13 10 7 5 4 4 4 5 5 6 6 7 9
14 13 13 12 12 12 12 10 9 10 9 7 9 9 9 9 8 8 8 8 8 9 8 9 9 9 8 9 10 10 10 10 9 9 9 9 11 11 7 6 7 8 9 11 13 15 14 13 13 12 13 14 13 12 11 10 9 7 5 6 10 12 13 15 17 19 20 19 19 20 19 15 15 14 9 6 4 3 3 4 5 5 5 6 7
14 13 13 12 12 13 13 11 11 10 9 9 10 10 9 10 10 9 9 9 9 8 8 9 9 9 9 9 9 9 9 9 8 8 9 10 11 10 7 6 7 8 10 11 13 14 15 14 14 13 13 13 11 11 11 11 10 8 5 6 8 8 9 13 15 15 17 18 18 19 18 16 17 17 12 7 5 3 3 3 4 5 5 5 5
14 14 14 12 12 13 13 13 13 12 11 12 11 9 9 10 10 10 10 9 9 9 9 10 10 10 11 10 10 10 10 10 9 8 10 10 11 10 9 8 8 8 9 10 12 13 15 15 15 14 14 13 12 12 12 11 9 8 7 7 6 6 6 9 12 13 13 15 17 18 18 17 18 17 14 10 7 5 3 3 3 3 4 4 5
13 14 14 14 14 14 13 13 13 13 12 13 12 9 9 10 11 11 10 8 8 9 9 9 10 10 10 10 10 11 11 12 11 10 9 9 10 10 10 10 10 9 11 12 13 13 14 16 16 15 15 15 14 13 13 13 11 9 9 9 9 9 8 7 10 12 11 11 13 15 16 17 16 17 15 12 10 8 5 3 3 3 3 4 4
14 13 13 15 15 14 13 12 12 12 12 12 11 10 10 11 12 11 10 9 9 9 8 8 9 10 10 11 11 11 12 12 12 12 11 9 10 11 11 11 11 11 12 14 14 15 15 16 16 16 16 16 16 14 12 12 13 12 13 14 13 12 10 10 11 12 12 11 10 12 14 15 15 16 16 13 10 9 6 3 3 3 3 4 4
14 13 13 15 15 13 12 13 12 13 13 12 11 10 10 10 10 10 10 10 10 10 9 10 10 11 11 12 13 13 13 13 13 13 13 10 9 12 12 12 12 13 14 15 16 17 18 17 17 16 17 17 16 15 13 13 13 13 14 16 15 14 12 12 12 12 11 10 10 11 12 12 13 15 15 12 10 9 6 3 3 3 3 3 4
14 13 13 15 15 13 13 13 12 12 12 12 11 10 10 10 10 11 11 11 11 11 11 11 12 12 12 12 13 13 13 14 14 14 13 11 10 12 14 14 14 14 15 15 16 17 18 18 17 16 17 17 15 15 14 14 14 14 14 16 16 15 13 13 13 12 10 8 8 10 10 10 12 14 15 12 9 9 8 4 3 3 3 3 4
15 14 13 14 14 13 14 13 12 13 13 13 13 11 10 11 10 10 10 10 11 11 12 12 13 13 13 13 12 12 13 13 13 13 13 13 13 14 16 16 14 14 15 16 17 18 19 19 18 17 18 18 16 16 16 16 16 17 17 17 17 16 16 15 12 10 8 7 8 8 9 10 11 12 14 12 10 12 11 6 4 4 3 3 3
14 14 13 13 13 12 14 15 15 16 16 15 14 12 11 12 11 10 11 10 10 10 11 12 12 11 12 12 11 13 14 13 13 14 14 15 15 16 17 16 15 14 15 17 17 19 20 21 20 19 18 19 18 18 18 18 18 19 18 18 18 18 17 15 11 9 8 9 9 8 8 9 9 8 11 14 15 15 13 7 5 5 4 4 4
13 14 14 14 14 12 14 16 18 18 16 15 14 13 12 12 11 10 11 9 9 10 10 11 12 11 10 10 11 13 14 14 15 15 14 14 16 16 16 17 17 17 17 17 18 19 20 20 21 20 20 21 22 20 19 19 19 20 19 19 19 19 17 15 13 12 11 11 11 10 9 9 8 10 15 18 18 14 11 8 6 5 4 3 3
16 15 13 14 13 10 9 11 14 16 15 13 12 12 12 11 10 11 11 10 9 9 11 12 14 13 12 12 12 12 13 15 17 16 16 17 18 17 17 17 17 18 18 18 20 21 21 21 21 22 22 23 24 24 22 21 20 21 21 21 20 20 18 17 17 15 12 11 12 12 10 8 9 15 19 19 17 12 11 11 8 6 4 2 1
19 17 16 15 14 12 11 9 9 11 13 12 10 11 12 11 11 12 12 12 12 13 14 14 14 13 13 13 14 14 15 17 18 19 20 22 22 21 21 20 20 20 20 21 21 21 21 21 22 23 23 24 25 27 25 23 22 22 23 23 22 21 20 19 19 15 12 12 13 13 12 8 10 15 19 19 17 12 11 11 8 5 4 2 1
19 19 19 19 17 15 15 14 9 9 13 13 11 12 13 13 13 13 13 13 14 15 15 14 13 12 13 14 15 16 18 19 21 23 24 24 24 24 23 23 22 21 21 20 20 20 21 22 23 25 25 26 27 28 27 25 24 23 24 24 23 22 20 19 18 17 15 15 14 13 13 10 9 13 18 19 16 13 11 11 8 5 3 3 2
20 21 21 21 19 15 15 15 11 10 13 14 13 13 13 14 14 14 15 15 15 14 13 13 13 13 14 15 15 17 20 20 21 23 23 24 24 24 23 23 23 24 23 22 22 23 23 24 25 26 27 28 28 29 29 28 26 24 23 23 23 22 21 19 19 19 18 16 15 15 15 11 7 11 17 18 16 14 11 10 9 5 4 7 8
22 22 21 21 19 18 17 15 11 12 14 15 15 14 14 14 14 15 15 14 13 12 11 12 13 13 14 15 15 17 18 19 20 21 23 24 25 25 25 25 25 26 25 24 26 27 27 28 28 29 30 31 30 29 28 27 28 27 25 23 21 22 21 19 18 18 17 16 15 15 16 13 9 8 14 16 15 13 11 10 11 10 8 10 13
22 23 23 24 22 20 20 17 14 14 15 15 15 14 13 14 15 14 13 12 12 12 13 14 14 14 15 15 16 17 18 19 21 22 23 24 24 23 23 22 22 22 20 20 23 26 27 27 28 29 31 31 30 28 27 27 28 28 24 21 20 21 20 18 16 16 15 15 14 14 16 14 10 6 11 14 12 11 11 12 13 12 11 11 13
24 25 25 25 25 23 21 21 19 16 13 13 14 14 13 14 13 12 11 12 12 12 13 14 14 13 14 15 16 17 18 18 20 21 21 21 20 19 19 18 18 18 18 19 20 21 22 24 25 26 27 28 28 27 26 25 23 20 19 19 21 22 19 16 15 15 14 13 12 12 12 12 10 6 7 10 10 10 11 11 11 11 10 11 13
25 25 21 20 23 23 21 20 19 16 13 12 13 13 12 11 11 10 10 10 10 9 9 10 8 7 10 14 14 15 16 16 17 18 18 18 17 17 17 17 17 18 18 19 20 20 21 22 23 22 20 19 19 17 16 17 18 19 21 22 23 23 19 16 16 16 13 11 11 11 12 12 11 7 6 9 10 9 9 8 8 10 10 11 13
Wind_Direction
129 126 127 123 123 121 117 114 105 96 96 98 103 115 105 76 82 94 98 117 135 122 115 117 103 96 97 106 103 93 91 83 97 94 83 81 83 85 80 76 73 69 66 60 56 52 50 48 48 46 42 42 38 36 30 25 22 18 17 13 11 6 1 358 352 349 350 348 343 338 336 332 329 325 323 321 319 318 317 319 320 319 317 317 317
134 135 133 120 121 122 116 113 108 102 102 104 90 108 139 105 81 107 119 116 114 123 127 114 111 115 88 87 94 91 96 94 93 93 88 89 87 85 81 75 71 66 62 57 50 44 40 37 37 37 34 33 28 24 20 16 14 11 10 8 6 3 360 355 349 346 340 338 335 333 332 329 327 326 325 323 320 319 319 319 319 316 317 317 317
136 138 133 120 119 118 111 102 98 103 117 116 92 96 104 109 132 116 115 124 109 106 115 122 126 122 109 108 107 94 90 92 99 94 85 97 90 84 83 74 70 64 57 53 48 42 34 28 24 24 23 22 21 16 12 10 7 5 4 2 0 357 353 349 343 337 331 330 332 333 332 330 331 329 328 326 323 323 322 321 318 315 318 318 318
136 138 128 122 123 113 105 95 92 114 125 109 104 120 99 111 133 116 125 131 119 119 115 123 132 125 121 120 117 97 94 105 128 142 97 103 87 80 87 78 70 59 49 48 44 36 32 32 24 20 21 19 18 15 10 6 1 358 356 353 353 351 348 344 339 335 332 331 334 335 334 334 335 334 333 331 328 327 326 322 318 316 317 320 321
136 134 125 123 121 117 113 107 115 140 121 113 114 112 112 130 116 100 119 115 115 133 117 114 135 139 121 104 141 134 111 129 159 133 107 100 57 54 83 70 59 43 43 41 30 20 22 38 35 26 23 20 17 14 9 2 356 351 349 346 344 344 343 342 340 338 337 337 338 337 337 338 339 339 339 338 336 333 328 323 320 318 318 321 323
130 126 124 116 112 120 123 118 126 127 120 120 105 87 96 122 110 109 124 117 119 124 115 122 130 143 148 99 125 134 125 148 149 119 132 131 305 309 16 22 25 21 22 24 15 5 6 22 30 27 18 12 8 5 2 356 352 347 345 343 341 339 339 340 342 344 344 343 342 340 339 340 341 342 343 343 341 336 332 328 325 322 320 323 324
130 126 126 120 122 128 121 125 133 132 128 101 96 94 86 87 105 128 134 117 113 107 125 151 129 134 144 112 108 131 143 159 149 148 167 206 281 307 3 6 12 11 359 360 14 5 359 1 359 4 2 358 354 353 356 352 346 343 341 341 341 340 339 341 343 345 347 347 344 341 339 339 341 343 343 343 340 336 334 331 328 325 324 325 325
129 128 130 131 140 138 133 147 137 126 122 103 108 108 95 90 101 116 121 114 109 107 130 148 148 149 147 138 129 142 157 124 138 137 132 204 277 320 350 357 351 355 354 353 5 2 360 357 345 341 339 343 345 343 349 350 344 340 338 339 341 342 342 343 342 342 344 345 344 341 339 340 343 345 345 345 342 338 335 330 328 329 328 327 327
134 135 135 133 135 136 147 152 121 122 124 107 106 95 89 95 93 104 124 120 105 124 142 160 160 151 151 159 147 157 181 131 152 175 190 218 285 319 329 334 322 333 360 357 343 337 343 342 334 331 326 332 341 336 335 338 338 338 340 342 342 344 344 342 341 341 342 343 344 343 343 346 346 345 347 348 347 342 336 331 331 334 332 330 331
143 139 136 133 134 143 158 155 134 139 130 107 98 86 82 86 88 113 117 108 84 99 139 188 172 155 152 151 143 167 197 167 183 215 277 321 305 289 284 297 307 318 346 352 320 309 320 322 324 327 320 326 337 336 330 329 332 332 336 343 344 346 345 344 344 344 344 344 345 346 350 352 348 345 344 346 347 346 341 337 338 338 335 333 336
149 141 140 139 140 150 157 149 140 145 133 117 107 100 99 98 114 140 109 108 98 85 125 135 92 141 147 133 140 159 215 198 194 214 219 282 286 302 278 287 308 294 307 338 343 319 313 308 318 323 319 325 331 333 330 327 329 327 329 340 344 345 346 346 347 347 347 346 347 351 355 354 349 346 343 342 345 347 345 341 342 341 337 337 339
156 150 144 143 145 154 152 139 141 163 144 116 116 125 120 118 130 124 101 135 136 113 150 148 92 131 149 151 160 164 190 178 36 297 243 242 261 306 268 263 282 260 282 324 336 314 305 303 316 323 323 328 329 331 333 331 330 326 324 335 341 342 343 345 347 347 347 347 350 353 354 351 346 344 342 340 342 346 347 342 342 343 340 340 342
159 158 153 151 152 156 155 144 150 180 156 116 130 135 117 116 112 91 95 141 140 110 141 203 155 140 153 171 180 179 183 182 211 253 273 226 224 244 237 248 269 266 279 291 284 298 304 306 313 318 321 330 330 329 330 333 333 327 323 332 340 340 340 343 345 347 347 348 351 351 349 346 343 342 340 339 340 343 346 343 342 344 342 342 343
152 160 158 156 156 153 160 161 165 181 164 139 144 125 108 105 85 90 162 161 133 92 114 182 136 144 167 200 211 193 195 206 215 221 262 234 241 253 246 250 256 269 282 274 282 303 311 315 319 317 317 324 327 323 323 331 335 331 327 332 338 339 339 341 345 346 347 349 350 347 346 344 342 342 339 337 338 341 344 343 344 345 345 345 345
139 155 154 151 155 148 159 177 180 175 165 161 150 125 119 105 74 69 160 133 118 110 125 88 39 179 184 223 237 216 219 230 231 230 238 254 288 285 255 252 255 278 283 273 288 302 313 323 322 313 306 312 319 321 326 330 331 329 330 335 337 337 337 341 344 346 348 349 347 345 345 344 341 340 338 336 336 339 343 345 346 348 347 347 348
140 158 152 148 155 154 157 173 184 171 161 162 145 138 140 111 92 145 115 94 116 134 146 97 46 238 193 124 219 272 260 275 279 249 242 273 316 313 262 254 277 300 281 272 295 303 313 314 301 292 291 303 313 318 330 334 329 328 335 340 339 338 338 340 343 347 348 347 345 345 343 340 337 336 336 336 336 340 346 348 350 350 349 350 351
159 167 177 174 168 169 167 164 173 171 156 153 151 146 141 120 126 141 112 109 132 119 146 129 83 359 264 147 64 312 295 295 306 286 260 283 319 324 290 273 291 299 275 285 304 299 300 290 281 287 289 306 317 318 331 338 338 342 347 345 341 340 341 342 345 347 347 345 344 343 339 337 335 335 336 339 341 346 355 355 355 353 351 354 354
173 178 190 189 181 178 172 158 160 171 164 158 167 158 133 126 141 152 143 152 166 159 126 128 104 105 240 205 179 283 301 301 300 300 285 290 294 291 292 277 271 274 278 308 304 279 297 294 281 291 297 315 323 319 330 337 336 343 349 344 340 342 343 345 347 347 346 345 342 340 338 337 335 335 341 346 350 359 6 360 358 357 354 357 359
179 179 179 179 183 176 171 167 158 165 171 162 172 187 171 157 161 178 171 165 200 210 152 111 72 175 244 227 202 264 289 289 289 288 293 308 301 285 288 264 246 252 270 302 285 265 303 319 302 310 319 331 321 313 326 332 325 330 341 342 338 341 344 346 348 348 346 343 340 339 339 339 337 341 350 355 4 15 13 3 1 359 357 1 4
182 186 182 175 181 177 171 174 167 158 161 172 197 209 201 191 197 228 238 234 233 218 198 253 256 284 292 242 275 291 284 284 287 282 284 303 307 296 299 276 255 255 271 285 280 279 303 309 315 328 333 339 325 312 321 329 328 329 339 340 336 339 343 347 350 348 345 342 341 342 343 343 344 350 358 7 23 25 14 6 4 1 359 5 9
187 198 195 180 181 181 174 173 175 170 159 175 204 227 255 243 237 253 246 222 231 237 249 245 244 292 331 321 303 293 289 296 295 289 290 301 311 310 321 310 274 273 308 296 270 288 323 312 328 337 333 336 332 318 317 328 338 335 337 337 334 340 346 350 353 350 346 345 345 346 347 349 352 357 7 25 34 22 14 10 6 3 1 6 13
194 202 197 184 186 182 175 167 167 175 172 180 193 213 305 297 243 245 263 248 237 229 232 257 267 291 304 306 302 289 285 291 292 303 304 311 319 315 321 325 305 309 328 306 239 300 344 336 337 335 327 341 342 331 334 344 343 334 333 336 335 340 349 355 356 352 349 349 350 350 353 356 359 6 22 37 30 17 15 13 7 6 4 6 16
196 214 204 188 192 185 180 172 166 180 189 193 192 195 243 253 198 220 257 268 255 236 231 254 279 285 283 277 279 282 288 294 292 294 299 312 318 311 312 320 323 327 334 328 270 341 350 333 330 328 324 345 350 342 352 353 339 330 330 336 338 345 354 357 354 351 350 352 353 354 359 2 6 16 32 34 19 12 14 13 9 8 7 8 17
192 213 208 194 204 197 187 186 188 199 200 197 195 198 210 209 211 234 255 263 261 258 240 237 267 281 285 284 281 288 302 303 290 290 303 315 318 314 315 319 324 330 335 329 318 334 342 323 335 344 329 337 349 352 359 348 328 328 333 336 341 350 355 353 349 349 351 353 356 357 3 10 12 19 28 20 8 6 11 13 11 10 10 10 16
191 203 195 199 216 213 197 199 207 214 210 206 204 209 213 206 222 248 256 254 257 270 257 245 264 273 276 286 281 274 285 292 293 304 316 317 317 312 316 329 332 330 328 327 327 339 352 339 339 342 328 333 347 350 353 341 323 327 333 334 340 349 349 345 345 348 352 356 360 358 3 15 17 18 18 8 358 358 6 14 13 13 13 13 17
193 201 198 206 219 217 211 211 212 219 220 217 218 221 218 212 223 239 247 248 251 266 267 260 270 278 279 289 285 277 293 305 304 316 322 320 322 315 321 336 332 328 332 337 344 352 359 351 332 325 321 325 335 337 334 328 313 316 330 333 338 343 340 338 342 348 356 1 2 358 359 13 18 17 13 5 354 352 3 15 16 17 17 17 19
200 208 206 211 222 221 224 225 220 225 227 225 228 231 226 222 233 242 245 251 258 271 280 278 276 281 280 288 298 298 307 306 299 314 321 307 306 312 326 331 322 324 335 341 352 355 350 347 334 330 329 327 331 329 324 320 302 303 333 337 334 334 333 335 345 353 356 1 4 359 353 358 9 12 9 5 356 355 7 16 19 21 20 20 23
201 209 208 207 214 224 231 229 228 232 231 231 231 233 237 234 241 250 248 243 250 264 274 271 267 277 280 286 300 305 305 301 297 310 312 298 297 307 317 317 313 322 330 330 343 350 347 350 340 332 335 336 334 330 331 331 317 316 341 338 327 325 328 336 349 355 354 359 5 2 355 350 349 356 1 1 360 5 14 16 19 24 23 23 25
202 206 211 211 211 217 223 225 235 246 243 241 239 238 245 245 244 255 254 243 244 252 261 265 265 274 283 285 291 296 296 299 304 309 310 311 316 318 318 317 316 320 323 322 331 342 347 350 338 326 327 327 325 329 339 336 335 343 346 332 322 321 330 339 347 351 351 356 2 0 357 353 343 338 348 353 0 11 17 12 14 21 24 25 27
212 205 212 221 223 222 217 215 229 247 246 241 243 246 252 253 250 257 261 254 253 260 269 274 273 277 286 284 279 279 276 282 297 303 306 313 317 310 304 309 315 316 317 318 324 334 340 342 339 327 320 316 318 333 342 328 353 5 343 330 328 328 334 337 338 345 349 352 358 358 355 356 350 337 336 338 350 5 13 7 6 14 21 24 29
217 214 212 221 232 236 225 217 222 237 243 238 243 250 253 258 259 262 270 272 271 278 285 285 285 289 293 289 281 279 278 280 287 293 300 301 295 287 282 288 305 314 316 316 317 323 331 339 341 328 318 315 315 326 336 335 350 3 343 334 329 325 329 329 328 339 344 344 351 354 353 356 358 347 338 329 326 339 355 357 356 3 13 19 27
218 219 214 214 228 241 238 226 223 238 249 242 242 253 257 262 266 261 262 271 278 289 294 289 288 286 285 285 284 287 290 288 288 295 306 301 293 293 290 291 300 305 308 312 312 316 324 330 327 322 320 318 317 321 326 330 332 345 353 336 323 323 329 329 329 338 341 340 344 349 351 355 2 359 350 337 316 311 326 337 343 349 359 9 20
220 223 221 216 221 234 240 231 217 234 252 244 234 251 263 268 277 274 263 265 277 292 299 294 288 282 279 281 286 294 300 302 304 307 306 299 301 309 308 303 301 297 301 308 309 312 319 321 319 323 324 322 324 325 322 323 317 319 345 337 326 331 332 331 335 338 339 339 343 347 348 354 6 6 359 351 328 305 311 318 324 333 341 353 8
220 227 230 224 217 222 233 239 231 236 250 238 228 244 263 271 278 278 271 268 271 279 289 287 280 276 274 276 283 293 297 297 300 304 306 307 312 315 315 314 311 308 312 313 311 312 319 324 324 328 330 327 327 322 313 316 316 316 344 341 327 331 331 330 333 334 335 338 344 348 346 352 8 7 1 3 349 312 306 314 315 317 320 332 353
216 222 231 233 226 219 221 232 242 244 242 240 241 246 254 259 263 265 268 268 264 265 276 285 286 289 287 285 289 293 290 288 289 299 309 308 306 309 315 319 312 311 316 315 314 316 320 326 328 330 334 333 334 330 318 316 317 317 329 330 327 337 335 325 321 326 334 337 341 346 345 350 2 3 0 5 7 340 311 317 318 310 306 313 332
220 222 227 232 235 230 219 219 231 237 235 241 250 250 250 254 256 260 266 268 271 275 282 292 298 300 297 296 300 299 294 294 292 296 304 304 306 316 326 324 314 311 314 312 314 317 318 321 323 324 327 327 330 333 326 319 315 309 307 315 323 325 319 311 309 317 331 334 336 340 342 346 353 356 358 2 9 2 326 317 324 311 295 293 305
226 228 227 225 232 239 233 225 231 239 238 240 245 241 246 258 258 261 268 274 283 286 286 291 295 297 301 304 308 306 300 299 299 298 303 308 313 317 316 316 315 307 304 305 310 314 315 317 319 321 323 321 320 323 321 315 309 300 299 309 316 308 292 281 293 305 316 324 330 333 335 341 346 347 351 357 5 3 340 312 322 317 295 278 279
223 230 231 223 228 242 244 234 233 241 244 244 245 239 241 253 257 259 264 273 284 288 289 292 296 303 313 315 315 312 306 305 306 304 305 308 312 314 315 317 316 308 304 307 311 313 315 316 317 319 321 319 317 319 318 312 305 300 301 307 312 308 294 277 281 296 310 317 324 326 325 332 337 336 339 348 359 1 351 330 323 313 297 285 275
218 227 230 224 228 239 246 241 233 237 247 248 246 245 244 252 262 264 266 272 278 283 290 297 300 303 308 310 313 315 315 315 314 309 305 304 311 318 321 319 313 307 307 308 309 312 316 317 317 320 322 320 318 318 319 317 309 305 307 310 311 308 297 283 275 282 298 311 320 317 309 316 326 325 327 336 349 357 355 344 329 306 284 282 272
219 224 226 231 239 238 239 246 241 236 246 251 249 249 246 250 262 269 274 277 275 278 287 293 297 300 301 304 310 313 314 315 315 309 303 302 306 308 308 306 302 301 306 309 308 309 311 315 318 320 320 319 319 319 321 320 313 311 313 312 312 311 304 293 282 278 280 285 299 304 297 302 312 311 313 321 337 350 347 333 321 306 270 263 264
224 224 223 235 247 242 237 243 242 232 233 238 242 242 243 252 262 267 273 279 277 280 287 290 294 298 300 304 309 308 306 310 310 302 293 292 294 295 296 297 294 297 307 310 309 309 310 313 315 317 315 315 315 316 318 317 313 313 313 309 309 312 309 301 292 288 290 282 288 306 307 300 298 297 300 302 311 330 332 316 297 292 264 250 258
229 226 225 230 233 236 238 234 228 228 231 238 244 241 241 251 260 263 268 276 283 293 299 298 299 301 300 301 300 295 297 305 306 299 292 288 288 288 289 288 286 290 297 300 301 305 308 308 308 308 307 306 306 309 312 311 309 309 309 307 307 309 309 303 294 297 306 295 288 295 293 289 286 271 272 281 294 316 326 314 288 283 267 250 248
223 223 232 236 227 227 234 228 226 233 240 248 250 245 241 245 252 260 267 277 297 312 313 305 302 303 301 300 300 297 299 303 303 301 297 291 290 291 287 281 281 283 286 290 295 298 297 296 297 298 296 296 297 299 301 303 304 303 304 305 305 305 304 298 294 303 310 298 286 278 266 271 271 249 255 274 289 307 326 322 296 281 276 264 245
220 218 228 241 239 234 232 224 224 233 241 249 247 239 237 244 249 254 257 261 275 288 293 294 294 293 290 291 295 297 296 296 296 297 296 293 293 294 289 283 283 283 285 291 296 297 293 289 288 290 289 289 290 291 293 296 298 298 298 298 300 301 298 289 288 297 306 298 287 279 269 260 253 249 256 269 279 294 321 323 302 280 282 285 247
230 227 227 238 247 254 259 256 243 239 243 251 250 240 237 242 245 246 248 254 266 277 286 290 289 285 284 287 290 290 289 291 293 292 292 291 290 290 289 287 285 283 287 292 294 294 292 288 286 287 288 287 286 287 289 291 290 291 293 294 295 296 292 287 285 288 292 287 281 279 272 248 235 250 259 265 270 284 315 326 315 293 292 297 245
237 234 232 238 244 248 255 261 257 249 247 246 244 240 236 237 240 243 247 259 274 282 284 284 285 286 286 290 293 292 291 292 292 291 291 291 290 290 290 289 286 285 289 292 292 291 289 286 285 285 287 288 287 286 286 285 283 283 287 290 291 290 287 284 284 284 280 272 265 266 264 247 238 255 261 261 267 279 304 321 323 313 317 348 346
236 234 235 241 241 236 243 250 246 243 245 241 235 234 234 238 244 252 260 269 278 283 280 279 286 291 291 291 293 292 291 292 291 291 292 293 293 292 290 288 286 285 286 285 285 286 285 284 283 283 284 285 283 282 283 282 279 278 279 280 281 280 280 279 280 280 275 267 260 261 261 248 236 257 261 261 269 278 288 306 321 324 337 356 353
234 233 234 238 235 229 235 242 242 242 245 244 241 239 242 250 258 263 269 272 274 277 279 282 286 289 290 291 291 288 288 289 290 292 294 295 297 297 295 293 290 290 290 286 282 281 280 280 281 282 284 284 282 281 281 282 282 279 274 270 270 270 270 274 279 276 270 265 262 264 262 242 214 246 265 262 264 270 275 292 313 313 307 332 347
232 231 230 231 231 229 231 235 240 241 239 240 244 248 254 263 267 269 271 273 274 277 281 285 289 291 292 293 291 288 288 289 291 294 297 299 301 302 302 301 300 299 297 290 286 285 285 284 284 283 282 280 278 276 277 280 281 276 266 262 265 267 265 268 270 265 263 264 261 261 259 238 205 226 268 261 253 260 272 285 300 304 300 319 340
233 232 230 229 229 229 230 234 239 239 232 233 245 256 265 271 276 280 283 286 288 288 288 289 291 293 292 289 287 289 294 298 301 303 306 309 312 314 315 316 315 313 309 304 301 299 296 292 289 285 280 278 278 276 276 276 276 274 271 269 268 267 264 261 254 250 256 263 258 252 244 225 201 199 249 256 250 253 265 273 281 289 298 317 331
233 229 222 221 226 227 227 229 232 232 229 230 241 254 269 280 289 297 300 298 295 293 292 294 296 298 292 289 294 304 313 316 316 317 319 321 323 325 326 326 324 320 316 313 310 307 303 299 296 291 282 279 283 281 273 268 271 283 290 282 269 263 260 253 245 245 254 261 255 245 232 221 214 201 211 236 239 236 244 255 270 283 298 318 325